Вернуться в каталог

ONEWEB-0681

АктивенСвязьPO
NORAD 56717·PAYLOAD·🇬🇧 United Kingdom

Запущен May 20, 2023 с Vandenberg Space Force Base

Loading…

Ближайшие Пролёты (ближайшие 24 часа)

TLE

СвежийSource: CelesTrak SupGP

Эпоха: Sep 14, 2026, 15:40 UTC

1 56717C 23068H   26257.65326803 -.00001181  00000+0 -28845-2 0  2578
2 56717  87.9280 226.1737 0002959  91.4779 326.4208 13.21300798    12

Отслеживайте ONEWEB-0681 в реальном времени с AllMySat

Download on the App Store